sat.trackr.live / text

‹ back to catalog

ONEWEB-0517

NORAD 54135 · 2022-138Y

PAYLOAD ACTIVE UNKNOWN

§ Identity

Operator
Country
UK
Launch date
2022-10-22
Launch site
SRILR
Launch vehicle
Mass (kg)
RCS (m²)

Purposes: comms

External: N2YO · Heavens-Above · Gunter

§ Orbital elements

Epoch: 2026-05-25T03:42:02.500704Z

Period
109.11 min
Inclination
87.9155°
Eccentricity
0.0002095
Mean motion
13.19726323 rev/d
Perigee alt
1,184.2 km
Apogee alt
1,187.4 km
Semi-major
7,563.9 km
B*
1.6369e-4
RAAN
309.5557°
Arg perigee
90.8905°
Mean anomaly
269.2468°
Rev number
17,379

§ Raw data

ONEWEB-05171 54135U 22138Y   26145.15419561  .00000078  00000+0  16369-3 0  99962 54135  87.9155 309.5557 0002095  90.8905 269.2468 13.19726323173797

JSON: /api/v1/satellites/54135 · /tle

For live sub-satellite position, see the globe view (requires WebGL).

§ Visibility from observer

Set your observer location to see the next 7 days of passes ≥ 10°. The values pass through the URL so the page stays shareable.

No JS? Fill the form by hand. The geolocation button needs JavaScript.